星链-11231 (STARLINK-11231)

导读

STARLINK-11231是美国于2024年9月13日发射的星链卫星,隶属于SpaceX公司的星链互联网星座项目。星链计划旨在构建全球卫星互联网络,为全球偏远地区、海洋等场景提供高速低延迟的宽带服务,该卫星是星链星座扩容的组成部分,服务于全球卫星互联网组网建设。

基本信息
目录编号:
61057
目录名称:
STARLINK-11231
国际标识:
2024-164H
轨道中心:
EARTH
卫星名称:
星链-11231
卫星全名:
星链-11231 (STARLINK-11231)
卫星状态:
在轨 (已飞行639 天)
发射日期:
2024-09-13 UTC
国别 :
美国 (US)
星等 :
--
轨道信息
数据来源 国际轨道数据
星历时间: 2026-06-13T17:10:27+0800
1天前
查看轨道信息
半长轴: 6737.915km
偏心率: 0.0000967
轨道倾角: 53.159°
近地点辐角 98.033°
升交点赤经 199.894°
平近点角 262.079°
近地点: 359.126km
远地点: 360.43km
周期: 91.738分钟
每日圈数: 15.696921
详细信息
固有亮度:
5
最大亮度:
2.5
卫星平台:
Starlink V1.0
覆盖范围:
全球
运营商:
太空探索技术公司
运营商所在国:
美国
制造商(研发单位):
太空探索技术公司
制造商所在国:
美国
使用方式:
暂无
卫星简介
Starlink 计划是 SpaceX 推出的全球卫星互联网项目,通过发射低轨道卫星,为全球尤其是偏远地区提供高速、低延迟的互联网服务。自 2019 年起,Starlink 已部署数千颗卫星,旨在缩小全球数字鸿沟,推动互联网普及。该项目还为军事、航空等行业提供通信支持,带来广泛经济效益。
2D轨道图
3D轨道图
轨道高度分析图
轨道倾角分析图
轨道综合分析图
查看轨道综合分析图